Key West, FL

2:39 PM EDT on October 31, 2014 (GMT -0400)
Big Coppitt Key Gulfside | Change Station
CLOSE
Current Station
Personal Weather Station
Location: Key West, FL
Elevation: 31 ft
Nearby Weather Stations

Elev 31 ft 24.60 °N, 81.67 °W | Updated 2 minutes ago

Partly Cloudy
Partly Cloudy
83.5 °F
Feels Like 88 °F
N
9.9
Wind Variable Wind from WNW

Today
High -- | Low -- °F
--% Chance of Precip.
Yesterday
High -- | Low -- °F
Precip. -- in
7:32 AM 6:47 PM
First Quarter, 57% visible
Pressure 29.84 in
Visibility 10.0 miles
Clouds Scattered Clouds 3000 ft
Heat Index 88 °F
Dew Point 71 °F
Humidity 66%
Rainfall 0.00 in
Snow Depth Not available.
UV 8 out of 12
Pollen 3.60 out of 12
Air Quality Not available.
Flu Activity Not available.
METAR KNQX 311753Z 28010KT 10SM SCT030 29/19 A2985 RMK AO2 SLP105 T02890194 10294 20233 58018 $

More Conditions Fewer Conditions

Pressure 29.84 in
Visibility 10.0 miles
Clouds Scattered Clouds 3000 ft
Heat Index 88 °F
Dew Point 71 °F
Humidity 66%
Rainfall 0.00 in
Snow Depth Not available.
UV 8 out of 12
Pollen 3.60 out of 12
Air Quality Not available.
Flu Activity Not available.
METAR KNQX 311753Z 28010KT 10SM SCT030 29/19 A2985 RMK AO2 SLP105 T02890194 10294 20233 58018 $

More Conditions Fewer Conditions

10-Day Weather Forecast

Almanac

Astronomy

Oct. 31, 2014 Rise Set
Actual Time
Civil Twilight
Nautical Twilight
Astronomical Twilight
Moon
Length of Visible Light
Length of Day
Tomorrow will be .
, % of the Moon is Illuminated

Today's Extremes

State Highs State Lows

Community

WunderPhotos

Upload Photos

1,766,690 photos uploaded!

WunderBlogs® & News

Nearby

Air Quality

  Air Quality AQ Index Pollutant
Not available.

Snow Depth

Station Depth Elevation

Earthquake Activity

City Distance Mag. Time & Date
Minimum magnitude displayed is 2.5.

Coastal Water Temperatures

Place Temperature

Nearby Weather Stations